This demonstration page uses our WeatherBlox Daily Observations layout. Learn more.

Left ArrowRight Arrow

39.12711, -84.51439

Hourly Observations for June 3, 2016

Temp ( °F °C ) Dew Point ( °F °C ) Humidity (%) Winds ( mph kmh ) Pressure ( in mb ) Visibility ( mi km ) Precip ( " mm )
12:53 am 00:53 Mostly Clear 66 18.9 66 18.9 100 100 SSW 5 7 30.05 1018 7 11 N/A
1:53 am 01:53 Mostly Cloudy with Mist and Fog 65 18.3 65 18.3 100 100 S 3 6 30.05 1018 5 8 N/A
2:53 am 02:53 Cloudy with Mist and Fog 65 18.3 65 18.3 100 100 S 3 6 30.04 1017 4 6 N/A
3:53 am 03:53 Cloudy with Mist and Fog 65 18.3 65 18.3 100 100 SSW 5 7 30.03 1017 4 6 N/A
4:53 am 04:53 Cloudy with Mist and Fog 66 18.9 66 18.9 100 100 N N/A 30.03 1017 5 8 N/A
5:53 am 05:53 Cloudy with Mist and Fog 67 19.4 66 18.9 97 97 N N/A 30.03 1017 4 6 N/A
6:53 am 06:53 Cloudy with Mist and Fog 67 19.4 66 18.9 97 97 VRB 3 6 30.05 1018 4 6 N/A
7:23 am 07:23 Cloudy with Mist and Fog 67 19.4 66 18.9 97 97 WNW 3 6 30.03 1017 5 8 N/A
7:53 am 07:53 Cloudy with Mist and Fog 68 20 65 18.3 90 90 NNW 3 6 30.05 1018 5 8 N/A
8:53 am 08:53 Mostly Cloudy 70 21.1 66 18.9 87 87 N N/A 30.06 1018 7 11 N/A
9:53 am 09:53 Mostly Cloudy 71 21.7 67 19.4 87 87 VRB 3 6 30.07 1018 7 11 N/A
10:06 am 10:06 Mostly Sunny 72 22 66 19 83 83 SE 3 6 30.06 1018 7 11 N/A
10:53 am 10:53 Mostly Sunny 73 22.8 66 18.9 79 79 N N/A 30.07 1018 9 14 N/A
11:53 am 11:53 Sunny 75 23.9 68 20 79 79 VRB 3 6 30.07 1018 8 13 N/A
12:53 pm 12:53 Sunny 78 25.6 68 20 71 71 SSW 5 7 30.06 1018 9 14 N/A
1:53 pm 13:53 Partly Cloudy 81 27.2 61 16.1 51 51 N N/A 30.05 1018 10 16 N/A
2:53 pm 14:53 Partly Cloudy 82 27.8 64 17.8 55 55 N N/A 30.03 1017 10 16 N/A
3:53 pm 15:53 Sunny 83 28.3 63 17.2 51 51 E 5 7 30.01 1016 10 16 N/A
4:53 pm 16:53 Partly Cloudy 82 27.8 62 16.7 51 51 WSW 7 11 30.00 1016 10 16 N/A
5:53 pm 17:53 Partly Cloudy 81 27.2 58 14.4 45 45 SW 6 9 29.99 1016 10 16 N/A
6:53 pm 18:53 Sunny 81 27.2 57 13.9 44 44 WNW 5 7 29.99 1016 10 16 N/A
7:53 pm 19:53 Sunny 76 24.4 67 19.4 74 74 S 3 6 30.00 1016 10 16 N/A
8:53 pm 20:53 Mostly Cloudy 74 23.3 65 18.3 74 74 S 3 6 30.01 1016 10 16 N/A
9:53 pm 21:53 Mostly Clear 73 22.8 64 17.8 74 74 N N/A 30.01 1016 10 16 N/A
10:53 pm 22:53 Partly Cloudy 70 21.1 64 17.8 82 82 N N/A 30.01 1016 10 16 N/A
11:53 pm 23:53 Clear 69 20.6 63 17.2 81 81 N N/A 30.01 1016 10 16 N/A

Powered by AerisWeather